This is the latest recevied weather packets stored in our database for station/object KC5TIL-3. If no packets are shown the sender has not sent any weather packets the latest 10 day(s).
| Time | Temp. | Humidity | Pressure | Rain* | Wind** | Luminosity | Snow |
|---|---|---|---|---|---|---|---|
| 1787779192 | 37.22° C | 15% | 1010.8 hPa | 0 mm | 0 m/s | - | - |
| 1787778894 | 37.22° C | 15% | 1010.8 hPa | 0 mm | 1.34 m/s, 312° | - | - |
| 1787778592 | 36.67° C | 15% | 1010.8 hPa | 0 mm | 1.79 m/s, 311° | - | - |
| 1787778294 | 37.22° C | 15% | 1010.8 hPa | 0 mm | 1.34 m/s, 280° | - | - |
| 1787777996 | 36.67° C | 15% | 1011.8 hPa | 0 mm | 1.79 m/s, 286° | - | - |
| 1787777695 | 37.22° C | 15% | 1011.8 hPa | 0 mm | 1.34 m/s, 275° | - | - |
| 1787777397 | 36.11° C | 16% | 1011.8 hPa | 0 mm | 1.79 m/s, 270° | - | - |
| 1787777099 | 36.11° C | 16% | 1011.8 hPa | 0 mm | 1.79 m/s, 290° | - | - |
| 1787776792 | 35.56° C | 16% | 1011.8 hPa | 0 mm | 1.34 m/s, 297° | - | - |
| 1787776489 | 35° C | 17% | 1011.8 hPa | 0 mm | 1.34 m/s, 299° | - | - |
| 1787776191 | 36.11° C | 16% | 1011.8 hPa | 0 mm | 1.34 m/s, 285° | - | - |
| 1787775889 | 36.11° C | 16% | 1011.8 hPa | 0 mm | 0 m/s | - | - |
| 1787775591 | 35.56° C | 17% | 1011.8 hPa | 0 mm | 0 m/s | - | - |
| 1787775293 | 35° C | 17% | 1012.8 hPa | 0 mm | 1.34 m/s, 69° | - | - |
| 1787774992 | 35° C | 17% | 1012.8 hPa | 0 mm | 0 m/s | - | - |
| 1787774395 | 34.44° C | 18% | 1012.8 hPa | 0 mm | 1.79 m/s, 78° | - | - |
| 1787773791 | 33.89° C | 19% | 1012.8 hPa | 0 mm | 0 m/s | - | - |
| 1787773493 | 33.89° C | 20% | 1012.8 hPa | 0 mm | 1.34 m/s, 290° | - | - |
| 1787773192 | 33.33° C | 20% | 1012.8 hPa | 0 mm | 1.79 m/s, 292° | - | - |
| 1787772595 | 33.33° C | 22% | 1012.8 hPa | 0 mm | 0 m/s | - | - |
| 1787772294 | 32.78° C | 23% | 1012.8 hPa | 0 mm | 1.79 m/s, 296° | - | - |
| 1787771996 | 32.22° C | 23% | 1012.8 hPa | 0 mm | 0 m/s | - | - |
| 1787771698 | 32.22° C | 24% | 1012.8 hPa | 0 mm | 1.34 m/s, 308° | - | - |
| 1787771382 | 32.22° C | 25% | 1012.8 hPa | 0 mm | 1.79 m/s, 291° | - | - |
| 1787771084 | 32.22° C | 26% | 1012.8 hPa | 0 mm | 1.79 m/s, 293° | - | - |
* Rain latest hour (hover to see other rain measurements)
** Current wind speed in m/s (hover to see current wind gust speed)